Jacksonville, FL

2:11 PM EST on February 20, 2017 (GMT -0500)
Cecil

Weather History for KVQQ - May, 2013

Change the Weather History Date:

Monday, May 13, 2013

  Actual Average (KNIP) Record (KNIP)
Temperature  
Mean Temperature 64 °F -  
Max Temperature 77 °F 83 °F 96 °F (1999)
Min Temperature 50 °F 65 °F 59 °F (2008)
Degree Days  
Heating Degree Days 2    
Growing Degree Days 14 (Base 50)    
Moisture  
Dew Point 50 °F    
Average Humidity 69    
Maximum Humidity 100    
Minimum Humidity 28    
Precipitation  
Precipitation 0.00 in - - ()
Sea Level Pressure  
Sea Level Pressure 30.09 in    
Wind  
Wind Speed 3 mph (NNW)    
Max Wind Speed 14 mph    
Max Gust Speed -    
Visibility 10 miles    
Events      
Averages and records for this station are not official NWS values.
T = Trace of Precipitation, MM = Missing Value Source: NWS Daily Summary

Daily Weather History Graph

Daily Weather History Graph

Search for Another Location

Airport or City:

Trip Planner

Search our weather history database for the weather conditions in past years. The results will help you decide how hot, cold, wet, or windy it might be!

Date:

Astronomy

May. 13, 2013 Rise Set
Actual Time 6:34 AM EDT 8:13 PM EDT
Civil Twilight 6:08 AM EDT 8:39 PM EDT
Nautical Twilight 5:37 AM EDT 9:10 PM EDT
Astronomical Twilight 5:04 AM EDT 9:43 PM EDT
Moon 9:21 AM EDT (5/13) 11:21 PM EDT (5/13)
Length of Visible Light 14h 30m
Length of Day
13h 38m
Waxing Crescent, 12% of the Moon is Illuminated
May 13
Waxing Crescent
May 18
First Quarter
May 25
Full
May 31
Last Quarter
Jun 8
New

Hourly Weather History & Observations

Time (EDT) Temp. Dew Point Humidity Pressure Visibility Wind Dir Wind Speed Gust Speed Precip Events Conditions
12:15 AM 62.6 °F 59.0 °F 88% 30.05 in 10.0 mi Calm Calm - N/A   Clear
12:35 AM 62.6 °F 59.0 °F 88% 30.05 in 10.0 mi Calm Calm - N/A   Clear
12:55 AM 60.8 °F 59.0 °F 94% 30.04 in 10.0 mi Calm Calm - N/A   Clear
1:15 AM 60.8 °F 59.0 °F 94% 30.04 in 10.0 mi Calm Calm - N/A   Clear
1:35 AM 59.0 °F 59.0 °F 100% 30.03 in 10.0 mi Calm Calm - N/A   Clear
1:55 AM 59.0 °F 59.0 °F 100% 30.03 in 10.0 mi Calm Calm - N/A   Clear
2:15 AM 59.0 °F 59.0 °F 100% 30.03 in 10.0 mi Calm Calm - N/A   Clear
2:35 AM 59.0 °F 59.0 °F 100% 30.03 in 10.0 mi Calm Calm - N/A   Clear
2:55 AM 59.0 °F 57.2 °F 94% 30.03 in 10.0 mi Calm Calm - N/A   Clear
3:15 AM 59.0 °F 57.2 °F 94% 30.03 in 10.0 mi Calm Calm - N/A   Clear
3:35 AM 59.0 °F 57.2 °F 94% 30.03 in 10.0 mi Calm Calm - N/A   Clear
3:55 AM 57.2 °F 57.2 °F 100% 30.03 in 10.0 mi Calm Calm - N/A   Clear
4:15 AM 59.0 °F 59.0 °F 100% 30.03 in 10.0 mi Calm Calm - N/A   Clear
4:35 AM 60.8 °F 59.0 °F 94% 30.05 in 10.0 mi Calm Calm - N/A   Partly Cloudy
4:55 AM 62.6 °F 55.4 °F 77% 30.05 in 10.0 mi North 8.1 mph - N/A   Partly Cloudy
5:15 AM 62.6 °F 51.8 °F 68% 30.05 in 10.0 mi North 10.4 mph - N/A   Clear
5:35 AM 64.4 °F 50.0 °F 59% 30.06 in 10.0 mi North 6.9 mph - N/A   Partly Cloudy
5:55 AM 62.6 °F 46.4 °F 55% 30.06 in 10.0 mi North 8.1 mph - N/A   Partly Cloudy
6:15 AM 62.6 °F 44.6 °F 52% 30.07 in 10.0 mi North 9.2 mph - N/A   Clear
6:35 AM 62.6 °F 44.6 °F 52% 30.09 in 10.0 mi North 8.1 mph - N/A   Clear
6:50 AM 62.6 °F 44.6 °F 52% 30.09 in 10.0 mi North 11.5 mph - N/A   Clear
7:50 AM 62.6 °F 44.6 °F 52% 30.11 in 10.0 mi NNW 6.9 mph - N/A   Clear
8:50 AM 62.6 °F 44.6 °F 52% 30.13 in 10.0 mi NNW 8.1 mph - N/A   Clear
9:50 AM 64.4 °F 42.8 °F 45% 30.15 in 10.0 mi North 5.8 mph - N/A   Clear
10:50 AM 68.0 °F 42.8 °F 40% 30.15 in 10.0 mi North 10.4 mph - N/A   Clear
11:50 AM 69.8 °F 44.6 °F 40% 30.17 in 10.0 mi NNW 6.9 mph - N/A   Clear
12:50 PM 73.4 °F 46.4 °F 38% 30.15 in 10.0 mi WNW 13.8 mph - N/A   Clear
1:50 PM 75.2 °F 41.0 °F 29% 30.14 in 10.0 mi NW 13.8 mph - N/A   Clear
2:50 PM 75.2 °F 41.0 °F 29% 30.12 in 10.0 mi NW 13.8 mph - N/A   Clear
3:50 PM 77.0 °F 41.0 °F 28% 30.11 in 10.0 mi WNW 13.8 mph - N/A   Clear
4:50 PM 75.2 °F 41.0 °F 29% 30.10 in 10.0 mi NNW 13.8 mph - N/A   Clear
5:50 PM 75.2 °F 41.0 °F 29% 30.09 in 10.0 mi NNW 9.2 mph - N/A   Clear
6:50 PM 75.2 °F 41.0 °F 29% 30.09 in 10.0 mi WNW 9.2 mph - N/A   Clear
7:50 PM 71.6 °F 41.0 °F 33% 30.09 in 10.0 mi NNW 5.8 mph - N/A   Clear
8:15 PM 66.2 °F 46.4 °F 49% 30.11 in 10.0 mi Calm Calm - N/A   Clear
8:35 PM 60.8 °F 50.0 °F 68% 30.12 in 10.0 mi Calm Calm - N/A   Clear
8:55 PM 57.2 °F 48.2 °F 72% 30.13 in 10.0 mi Calm Calm - N/A   Clear
9:15 PM 57.2 °F 48.2 °F 72% 30.14 in 10.0 mi Calm Calm - N/A   Clear
9:35 PM 55.4 °F 48.2 °F 77% 30.14 in 10.0 mi Calm Calm - N/A   Clear
9:55 PM 53.6 °F 48.2 °F 82% 30.15 in 10.0 mi Calm Calm - N/A   Clear
10:15 PM 53.6 °F 48.2 °F 82% 30.15 in 10.0 mi Calm Calm - N/A   Clear
10:35 PM 51.8 °F 48.2 °F 88% 30.16 in 10.0 mi Calm Calm - N/A   Clear
10:55 PM 50.0 °F 48.2 °F 94% 30.16 in 10.0 mi Calm Calm - N/A   Clear
11:15 PM 50.0 °F 48.2 °F 94% 30.17 in 10.0 mi Calm Calm - N/A   Clear
11:35 PM 50.0 °F 48.2 °F 94% 30.17 in 10.0 mi Calm Calm - N/A   Clear
11:55 PM 50.0 °F 48.2 °F 94% 30.17 in 10.0 mi Calm Calm - N/A   Clear